This is the latest recevied weather packets stored in our database for station/object N8XHB. If no packets are shown the sender has not sent any weather packets the latest 10 day(s).
| Time | Temp. | Humidity | Pressure | Rain* | Wind** | Luminosity | Snow |
|---|---|---|---|---|---|---|---|
| 1777650259 | 7.22° C | 50% | 1015.8 hPa | 0 mm | - | 310 W/m² | - |
| 1777649956 | 6.67° C | 50% | 1015.7 hPa | 0 mm | - | 310 W/m² | - |
| 1777649654 | 7.22° C | 50% | 1015.5 hPa | 0 mm | - | 323 W/m² | - |
| 1777649349 | 6.67° C | 54% | 1015.7 hPa | 0 mm | - | 419 W/m² | - |
| 1777649047 | 6.11° C | 54% | 1015.8 hPa | 0 mm | - | 321 W/m² | - |
| 1777648745 | 6.11° C | 56% | 1015.8 hPa | 0 mm | - | 225 W/m² | - |
| 1777648441 | 6.11° C | 58% | 1015.7 hPa | 0 mm | - | 169 W/m² | - |
| 1777648137 | 6.11° C | 58% | 1015.8 hPa | 0 mm | - | 242 W/m² | - |
| 1777647833 | 6.11° C | 59% | 1015.6 hPa | 0 mm | - | 241 W/m² | - |
| 1777647529 | 6.11° C | 59% | 1015.8 hPa | 0 mm | - | 254 W/m² | - |
| 1777647227 | 6.11° C | 60% | 1015.7 hPa | 0 mm | - | 269 W/m² | - |
| 1777646924 | 5.56° C | 61% | 1015.5 hPa | 0 mm | - | 280 W/m² | - |
| 1777646619 | 5.56° C | 60% | 1015.6 hPa | 0 mm | - | 251 W/m² | - |
| 1777646316 | 5.56° C | 62% | 1015.6 hPa | 0 mm | - | 240 W/m² | - |
| 1777646013 | 5° C | 61% | 1015.5 hPa | 0 mm | - | 241 W/m² | - |
| 1777645709 | 5° C | 64% | 1015.8 hPa | 0 mm | - | 207 W/m² | - |
| 1777645406 | 5° C | 64% | 1015.3 hPa | 0 mm | - | 171 W/m² | - |
| 1777645101 | 5° C | 65% | 1015.3 hPa | 0 mm | - | 113 W/m² | - |
| 1777644798 | 5° C | 64% | 1015.3 hPa | 0 mm | - | 79 W/m² | - |
| 1777644496 | 5° C | 63% | 1015.5 hPa | 0 mm | - | 80 W/m² | - |
| 1777644192 | 5° C | 64% | 1015.7 hPa | 0 mm | - | 98 W/m² | - |
| 1777643889 | 5° C | 62% | 1015.5 hPa | 0 mm | - | 107 W/m² | - |
| 1777643587 | 5° C | 62% | 1015.5 hPa | 0 mm | - | 114 W/m² | - |
| 1777643283 | 5° C | 61% | 1015.5 hPa | 0 mm | - | 125 W/m² | - |
| 1777642979 | 5° C | 62% | 1015.3 hPa | 0 mm | - | 130 W/m² | - |
* Rain latest hour (hover to see other rain measurements)
** Current wind speed in m/s (hover to see current wind gust speed)